Time,TemperatureF,DewpointF,PressureIn,WindDirection,WindDirectionDegrees,WindSpeedMPH,WindSpeedGustMPH,Humidity,HourlyPrecipIn,Conditions,Clouds,dailyrainin,SoftwareType,DateUTC
2013-02-13 00:04:00,33.3,25.0,29.88,NNE,15,4.0,-999.0,71,-99.99,,,0.00,weatherlink.com 1.10,2013-02-13 05:04:00,
2013-02-13 00:19:00,33.2,25.0,29.88,ESE,117,2.0,-999.0,71,-99.99,,,0.00,weatherlink.com 1.10,2013-02-13 05:19:00,
2013-02-13 00:34:00,33.2,25.0,29.88,East,101,0.0,-999.0,72,-99.99,,,0.00,weatherlink.com 1.10,2013-02-13 05:34:00,
2013-02-13 00:49:00,33.0,25.0,29.88,East,86,0.0,-999.0,72,-99.99,,,0.00,weatherlink.com 1.10,2013-02-13 05:49:00,
2013-02-13 01:04:00,32.9,25.0,29.89,ESE,113,2.0,-999.0,73,-99.99,,,0.00,weatherlink.com 1.10,2013-02-13 06:04:00,
2013-02-13 01:19:00,32.9,25.0,29.89,ESE,113,2.0,-999.0,73,-99.99,,,0.00,weatherlink.com 1.10,2013-02-13 06:19:00,
2013-02-13 01:34:00,32.8,25.0,29.88,ESE,115,0.0,-999.0,74,-99.99,,,0.00,weatherlink.com 1.10,2013-02-13 06:34:00,
2013-02-13 01:49:00,32.6,25.0,29.88,NE,40,0.0,-999.0,74,-99.99,,,0.00,weatherlink.com 1.10,2013-02-13 06:49:00,
2013-02-13 02:04:00,32.5,25.0,29.88,NE,46,0.0,-999.0,75,-99.99,,,0.00,weatherlink.com 1.10,2013-02-13 07:04:00,
2013-02-13 02:19:00,32.5,25.0,29.88,ESE,117,0.0,-999.0,75,-99.99,,,0.00,weatherlink.com 1.10,2013-02-13 07:19:00,
2013-02-13 02:34:00,32.5,25.0,29.88,NNE,19,3.0,-999.0,75,-99.99,,,0.00,weatherlink.com 1.10,2013-02-13 07:34:00,
2013-02-13 02:49:00,32.5,26.0,29.89,NE,46,0.0,-999.0,76,-99.99,,,0.00,weatherlink.com 1.10,2013-02-13 07:49:00,
2013-02-13 03:05:00,32.5,26.0,29.89,NNE,30,0.0,-999.0,76,-99.99,,,0.00,weatherlink.com 1.10,2013-02-13 08:05:00,
2013-02-13 03:20:00,32.5,26.0,29.89,NE,46,2.0,-999.0,76,-99.99,,,0.00,weatherlink.com 1.10,2013-02-13 08:20:00,
2013-02-13 03:35:00,32.5,26.0,29.89,NNE,23,4.0,-999.0,77,-99.99,,,0.00,weatherlink.com 1.10,2013-02-13 08:35:00,
2013-02-13 03:50:00,32.5,26.0,29.88,NE,38,0.0,-999.0,77,-99.99,,,0.00,weatherlink.com 1.10,2013-02-13 08:50:00,
2013-02-13 04:05:00,32.4,26.0,29.88,NE,49,0.0,-999.0,77,-99.99,,,0.00,weatherlink.com 1.10,2013-02-13 09:05:00,
2013-02-13 04:20:00,32.3,26.0,29.88,NE,49,0.0,-999.0,78,-99.99,,,0.00,weatherlink.com 1.10,2013-02-13 09:20:00,
2013-02-13 04:35:00,32.3,26.0,29.88,NNE,19,0.0,-999.0,78,-99.99,,,0.00,weatherlink.com 1.10,2013-02-13 09:35:00,
2013-02-13 04:51:00,32.3,26.0,29.88,NNE,19,0.0,-999.0,78,-99.99,,,0.00,weatherlink.com 1.10,2013-02-13 09:51:00,
2013-02-13 05:05:00,32.2,26.0,29.88,NNE,19,0.0,-999.0,78,-99.99,,,0.00,weatherlink.com 1.10,2013-02-13 10:05:00,
2013-02-13 05:20:00,32.3,26.0,29.88,NNE,19,0.0,-999.0,78,-99.99,,,0.00,weatherlink.com 1.10,2013-02-13 10:20:00,
2013-02-13 05:35:00,32.1,26.0,29.87,NNE,19,0.0,-999.0,78,-99.99,,,0.00,weatherlink.com 1.10,2013-02-13 10:35:00,
2013-02-13 05:50:00,32.0,26.0,29.87,NNE,19,0.0,-999.0,78,-99.99,,,0.00,weatherlink.com 1.10,2013-02-13 10:50:00,
2013-02-13 06:05:00,31.9,26.0,29.87,NNE,19,0.0,-999.0,78,-99.99,,,0.00,weatherlink.com 1.10,2013-02-13 11:05:00,
2013-02-13 06:20:00,31.7,26.0,29.86,NNE,19,0.0,-999.0,79,-99.99,,,0.00,weatherlink.com 1.10,2013-02-13 11:20:00,
2013-02-13 06:36:00,31.4,26.0,29.86,NNE,19,0.0,-999.0,80,-99.99,,,0.00,weatherlink.com 1.10,2013-02-13 11:36:00,
2013-02-13 06:50:00,31.3,26.0,29.87,NNE,19,0.0,-999.0,80,-99.99,,,0.00,weatherlink.com 1.10,2013-02-13 11:50:00,
2013-02-13 07:05:00,31.2,26.0,29.86,NNE,19,0.0,-999.0,80,-99.99,,,0.00,weatherlink.com 1.10,2013-02-13 12:05:00,
2013-02-13 07:20:00,31.1,26.0,29.87,NNE,19,0.0,-999.0,81,-99.99,,,0.00,weatherlink.com 1.10,2013-02-13 12:20:00,
2013-02-13 07:36:00,31.2,26.0,29.87,NNE,19,0.0,-999.0,82,-99.99,,,0.00,weatherlink.com 1.10,2013-02-13 12:36:00,
2013-02-13 07:50:00,31.4,27.0,29.87,NNE,19,0.0,-999.0,82,-99.99,,,0.00,weatherlink.com 1.10,2013-02-13 12:50:00,
2013-02-13 08:05:00,31.7,27.0,29.86,NNE,19,0.0,-999.0,82,-99.99,,,0.00,weatherlink.com 1.10,2013-02-13 13:05:00,
2013-02-13 08:21:00,32.2,27.0,29.87,NNE,19,0.0,-999.0,82,-99.99,,,0.00,weatherlink.com 1.10,2013-02-13 13:21:00,
2013-02-13 08:35:00,32.6,27.0,29.86,NNE,19,0.0,-999.0,80,-99.99,,,0.00,weatherlink.com 1.10,2013-02-13 13:35:00,
2013-02-13 08:51:00,32.9,27.0,29.86,NNE,18,0.0,-999.0,79,-99.99,,,0.00,weatherlink.com 1.10,2013-02-13 13:51:00,
2013-02-13 09:06:00,33.4,27.0,29.86,NNE,18,0.0,-999.0,77,-99.99,,,0.00,weatherlink.com 1.10,2013-02-13 14:06:00,
2013-02-13 09:22:00,33.7,26.0,29.86,ENE,57,0.0,-999.0,74,-99.99,,,0.00,weatherlink.com 1.10,2013-02-13 14:22:00,
2013-02-13 09:37:00,34.1,26.0,29.85,SE,134,0.0,-999.0,72,-99.99,,,0.00,weatherlink.com 1.10,2013-02-13 14:37:00,
2013-02-13 09:51:00,34.3,25.0,29.85,NNE,26,4.0,-999.0,70,-99.99,,,0.00,weatherlink.com 1.10,2013-02-13 14:51:00,
2013-02-13 10:06:00,34.2,25.0,29.85,North,360,0.0,-999.0,68,-99.99,,,0.00,weatherlink.com 1.10,2013-02-13 15:06:00,
2013-02-13 10:21:00,34.5,25.0,29.85,NNE,19,2.0,-999.0,67,-99.99,,,0.00,weatherlink.com 1.10,2013-02-13 15:21:00,
2013-02-13 10:36:00,35.0,23.0,29.85,NE,38,1.0,-999.0,63,-99.99,,,0.00,weatherlink.com 1.10,2013-02-13 15:36:00,
2013-02-13 10:51:00,35.2,22.0,29.85,ESE,115,0.0,-999.0,58,-99.99,,,0.00,weatherlink.com 1.10,2013-02-13 15:51:00,
2013-02-13 11:06:00,36.1,22.0,29.84,East,95,0.0,-999.0,58,-99.99,,,0.00,weatherlink.com 1.10,2013-02-13 16:06:00,
2013-02-13 11:21:00,35.5,21.0,29.84,SE,124,0.0,-999.0,57,-99.99,,,0.00,weatherlink.com 1.10,2013-02-13 16:21:00,
2013-02-13 11:36:00,35.9,22.0,29.83,ESE,120,0.0,-999.0,58,-99.99,,,0.00,weatherlink.com 1.10,2013-02-13 16:36:00,
2013-02-13 11:51:00,36.3,23.0,29.83,ESE,113,0.0,-999.0,58,-99.99,,,0.00,weatherlink.com 1.10,2013-02-13 16:51:00,
2013-02-13 12:06:00,36.3,21.0,29.82,East,99,0.0,-999.0,55,-99.99,,,0.00,weatherlink.com 1.10,2013-02-13 17:06:00,
2013-02-13 12:21:00,36.2,22.0,29.82,ENE,72,0.0,-999.0,56,-99.99,,,0.00,weatherlink.com 1.10,2013-02-13 17:21:00,
2013-02-13 12:36:00,36.8,21.0,29.82,NNW,343,0.0,-999.0,54,-99.99,,,0.00,weatherlink.com 1.10,2013-02-13 17:36:00,
2013-02-13 12:52:00,37.4,20.0,29.81,ENE,69,4.0,-999.0,50,-99.99,,,0.00,weatherlink.com 1.10,2013-02-13 17:52:00,
2013-02-13 13:07:00,37.3,21.0,29.81,NNE,17,0.0,-999.0,51,-99.99,,,0.00,weatherlink.com 1.10,2013-02-13 18:07:00,
2013-02-13 13:22:00,39.8,22.0,29.80,NE,35,3.0,-999.0,49,-99.99,,,0.00,weatherlink.com 1.10,2013-02-13 18:22:00,
2013-02-13 13:37:00,38.6,20.0,29.79,North,5,6.0,-999.0,48,-99.99,,,0.00,weatherlink.com 1.10,2013-02-13 18:37:00,
2013-02-13 13:52:00,39.3,22.0,29.78,ESE,115,1.0,-999.0,50,-99.99,,,0.00,weatherlink.com 1.10,2013-02-13 18:52:00,
2013-02-13 14:07:00,40.0,21.0,29.77,North,355,2.0,-999.0,46,-99.99,,,0.00,weatherlink.com 1.10,2013-02-13 19:07:00,
2013-02-13 14:22:00,40.2,24.0,29.76,SSW,200,0.0,-999.0,53,-99.99,,,0.00,weatherlink.com 1.10,2013-02-13 19:22:00,
2013-02-13 14:37:00,39.5,23.0,29.77,SSE,152,2.0,-999.0,53,-99.99,,,0.00,weatherlink.com 1.10,2013-02-13 19:37:00,
2013-02-13 14:52:00,40.6,24.0,29.76,SSE,150,0.0,-999.0,51,-99.99,,,0.00,weatherlink.com 1.10,2013-02-13 19:52:00,
2013-02-13 15:07:00,40.3,23.0,29.76,SSE,148,0.0,-999.0,51,-99.99,,,0.00,weatherlink.com 1.10,2013-02-13 20:07:00,
2013-02-13 15:23:00,40.0,23.0,29.75,SSE,154,0.0,-999.0,51,-99.99,,,0.00,weatherlink.com 1.10,2013-02-13 20:23:00,
2013-02-13 15:37:00,39.1,23.0,29.76,SSW,196,0.0,-999.0,52,-99.99,,,0.00,weatherlink.com 1.10,2013-02-13 20:37:00,
2013-02-13 15:52:00,40.3,23.0,29.75,SSW,196,0.0,-999.0,50,-99.99,,,0.00,weatherlink.com 1.10,2013-02-13 20:52:00,
2013-02-13 16:07:00,40.5,23.0,29.75,SSW,196,0.0,-999.0,51,-99.99,,,0.00,weatherlink.com 1.10,2013-02-13 21:07:00,
2013-02-13 16:22:00,39.6,22.0,29.75,SSW,196,0.0,-999.0,50,-99.99,,,0.00,weatherlink.com 1.10,2013-02-13 21:22:00,
2013-02-13 16:37:00,38.5,22.0,29.74,SSW,196,0.0,-999.0,52,-99.99,,,0.00,weatherlink.com 1.10,2013-02-13 21:37:00,
2013-02-13 16:52:00,37.8,23.0,29.73,SSW,196,0.0,-999.0,55,-99.99,,,0.00,weatherlink.com 1.10,2013-02-13 21:52:00,
2013-02-13 17:07:00,37.1,22.0,29.72,SSW,196,0.0,-999.0,55,-99.99,,,0.00,weatherlink.com 1.10,2013-02-13 22:07:00,
2013-02-13 17:22:00,36.0,22.0,29.72,SSW,196,0.0,-999.0,56,-99.99,,,0.00,weatherlink.com 1.10,2013-02-13 22:22:00,
2013-02-13 17:37:00,35.0,21.0,29.73,SSW,196,0.0,-999.0,57,-99.99,,,0.00,weatherlink.com 1.10,2013-02-13 22:37:00,
2013-02-13 17:53:00,33.9,22.0,29.73,SSW,196,0.0,-999.0,61,-99.99,,,0.00,weatherlink.com 1.10,2013-02-13 22:53:00,
2013-02-13 18:23:00,32.9,22.0,29.73,SSW,196,0.0,-999.0,65,-99.99,,,0.00,weatherlink.com 1.10,2013-02-13 23:23:00,
2013-02-13 18:38:00,32.5,22.0,29.72,SSW,196,0.0,-999.0,66,-99.99,,,0.00,weatherlink.com 1.10,2013-02-13 23:38:00,
2013-02-13 18:53:00,32.2,22.0,29.71,SSW,196,0.0,-999.0,66,-99.99,,,0.00,weatherlink.com 1.10,2013-02-13 23:53:00,
2013-02-13 19:08:00,32.1,22.0,29.72,SSW,196,0.0,-999.0,66,-99.99,,,0.00,weatherlink.com 1.10,2013-02-14 00:08:00,
2013-02-13 19:23:00,32.1,22.0,29.73,SSW,196,0.0,-999.0,66,-99.99,,,0.00,weatherlink.com 1.10,2013-02-14 00:23:00,
2013-02-13 19:38:00,32.0,21.0,29.73,SSW,196,0.0,-999.0,65,-99.99,,,0.00,weatherlink.com 1.10,2013-02-14 00:38:00,
2013-02-13 19:53:00,31.9,21.0,29.73,SSW,196,0.0,-999.0,65,-99.99,,,0.00,weatherlink.com 1.10,2013-02-14 00:53:00,
2013-02-13 20:08:00,32.0,22.0,29.74,SSW,196,0.0,-999.0,66,-99.99,,,0.00,weatherlink.com 1.10,2013-02-14 01:08:00,
2013-02-13 20:23:00,31.8,22.0,29.74,SSW,196,0.0,-999.0,67,-99.99,,,0.00,weatherlink.com 1.10,2013-02-14 01:23:00,
2013-02-13 20:38:00,31.7,22.0,29.74,SSW,196,0.0,-999.0,67,-99.99,,,0.00,weatherlink.com 1.10,2013-02-14 01:38:00,
2013-02-13 20:53:00,31.7,23.0,29.74,SSW,196,0.0,-999.0,69,-99.99,,,0.00,weatherlink.com 1.10,2013-02-14 01:53:00,
2013-02-13 21:08:00,31.6,22.0,29.74,SSW,196,0.0,-999.0,68,-99.99,,,0.00,weatherlink.com 1.10,2013-02-14 02:08:00,
2013-02-13 21:23:00,31.6,22.0,29.74,SSW,196,0.0,-999.0,67,-99.99,,,0.00,weatherlink.com 1.10,2013-02-14 02:23:00,
2013-02-13 21:38:00,31.7,22.0,29.74,SSW,196,0.0,-999.0,68,-99.99,,,0.00,weatherlink.com 1.10,2013-02-14 02:38:00,
2013-02-13 21:53:00,31.8,22.0,29.73,SSW,196,0.0,-999.0,68,-99.99,,,0.00,weatherlink.com 1.10,2013-02-14 02:53:00,
2013-02-13 22:08:00,32.0,22.0,29.73,SSW,196,0.0,-999.0,68,-99.99,,,0.00,weatherlink.com 1.10,2013-02-14 03:08:00,
2013-02-13 22:24:00,32.0,22.0,29.73,SSW,196,0.0,-999.0,68,-99.99,,,0.00,weatherlink.com 1.10,2013-02-14 03:24:00,
2013-02-13 22:38:00,31.8,23.0,29.73,SSW,196,0.0,-999.0,69,-99.99,,,0.00,weatherlink.com 1.10,2013-02-14 03:38:00,
2013-02-13 22:53:00,31.6,23.0,29.73,SSW,196,0.0,-999.0,70,-99.99,,,0.00,weatherlink.com 1.10,2013-02-14 03:53:00,
2013-02-13 23:08:00,31.5,23.0,29.73,SSW,196,0.0,-999.0,70,-99.99,,,0.00,weatherlink.com 1.10,2013-02-14 04:08:00,
2013-02-13 23:23:00,31.4,23.0,29.72,SSW,196,0.0,-999.0,70,-99.99,,,0.00,weatherlink.com 1.10,2013-02-14 04:23:00,
2013-02-13 23:38:00,31.0,23.0,29.72,SSW,196,0.0,-999.0,71,-99.99,,,0.00,weatherlink.com 1.10,2013-02-14 04:38:00,
2013-02-13 23:53:00,30.8,23.0,29.72,SSW,196,0.0,-999.0,72,-99.99,,,0.00,weatherlink.com 1.10,2013-02-14 04:53:00,